Location: Aulus
(42.7909°N, 1.3399°E)
Time: 06:47:34
(UTC+00:00)

ASTEX 1 - Pass Details

Date: 19 May 2025
Orbit: 715 x 734 km, 92.7° (Epoch: 18 June)

Event Time Altitude Azimuth Distance (km) Brightness Sun altitude
Rises 23:19:33 0° 12° (NNE) 3,161 7.8 -26.8°
Reaches altitude 10° 23:21:58 10° 19° (NNE) 2,237 6.7 -26.9°
Enters shadow 23:26:13 42° 76° (ENE) 1,048 4.2 -27.0°
